[[{"header":{"parameterUnit":"m.s-1","parameterCategory":1,"la1":30.2992,"la2":30.254,"lo1":-89.0895,"lo2":-89.0443,"dy":0.0025,"dx":0.0025,"nx":19,"ny":19,"refTime":"2026-04-23T03:00:00:Z","depth":0,"parameterNumber":2,"parameterNumberName":"U-component_of_WINDS"},"data":[0,0,0,-3.7351,-3.7352,-3.742,-3.742,-3.7506,-3.7507,0,0,0,0,0,0,0,0,0,0,0,-3.7332,-3.7332,-3.7351,-3.7352,-3.742,-3.742,-3.7506,-3.7507,0,0,0,0,0,0,0,0,0,0,0,-3.7331,-3.7332,-3.7333,-3.7353,-3.742,-3.742,-3.7506,-3.7455,0,0,0,0,0,0,0,0,0,0,-3.7389,-3.7372,-3.7332,-3.7333,-3.7353,-3.742,-3.742,-3.7452,-3.7458,-3.7475,0,-3.7493,0,-3.7501,-3.7513,-3.7513,0,0,0,-3.7351,-3.7368,-3.7385,-3.7333,-3.7354,-3.742,-3.7389,-3.7455,-3.7462,-3.7483,-3.7494,-3.7497,-3.7503,-3.7513,-3.7514,-3.7621,-3.7621,0,0,-3.7348,-3.7344,-3.7381,-3.7389,-3.7381,-3.7387,-3.7391,-3.7459,-3.747,-3.7494,-3.7499,-3.7504,-3.7514,-3.7514,-3.762,-3.7621,0,0,0,-3.7338,-3.7341,-3.7357,-3.7386,-3.7398,-3.7389,-3.7394,-3.7467,-3.7473,-3.75,-3.7505,-3.7514,-3.7515,-3.762,-3.762,-3.7642,0,0,0,-3.7335,-3.7335,-3.7356,-3.7354,-3.7397,-3.7434,-3.7401,-3.7468,-3.7476,-3.7505,-3.7514,-3.7516,-3.7619,-3.762,-3.764,-3.7652,0,0,0,-3.7327,-3.7334,-3.7345,-3.7354,-3.7383,-3.7433,-3.7442,-3.747,-3.7479,-3.7513,-3.7516,-3.7619,-3.762,-3.7639,-3.7649,-3.7677,0,0,0,-3.7316,-3.7364,-3.7345,-3.74,-3.7382,-3.7447,-3.7442,-3.749,-3.7522,-3.7515,-3.7619,-3.762,-3.7638,-3.7647,-3.7675,-3.7697,-3.7707,0,0,-3.7374,-3.7371,-3.7403,-3.7389,-3.7455,-3.7437,-3.7507,-3.754,-3.7546,-3.7595,-3.7598,-3.7641,-3.7649,-3.7676,-3.7769,-3.7776,0,0,0,-3.742,-3.7443,-3.7462,-3.7492,-3.7519,-3.7542,-3.7565,-3.7577,-3.7619,-3.7571,-3.766,-3.7665,-3.7681,-3.7692,-3.7698,-3.7711,-3.7626,-3.7626,-3.7626,-3.7493,-3.75,-3.7554,-3.7568,-3.7598,-3.7621,-3.7645,-3.7665,-3.7663,-3.7684,-3.7697,-3.7753,-3.7765,-3.777,-3.7783,-3.7712,-3.7712,-3.7713,-3.7713,-3.7575,-3.7607,-3.7605,-3.7655,-3.7661,-3.7703,-3.7728,-3.7725,-3.7763,-3.7743,-3.7758,-3.7732,-3.7778,-3.779,-3.7714,-3.7714,-3.7714,-3.7714,-3.7714,-3.7621,-3.7637,-3.7652,-3.7697,-3.773,-3.7744,-3.7781,-3.7786,-3.7791,-3.7806,-3.7819,-3.7818,-3.7816,-3.7813,-3.7813,-3.7813,-3.7813,-3.7813,-3.7813,-3.7661,-3.7677,-3.7708,-3.7741,-3.7761,-3.7788,-3.7812,-3.7831,-3.7853,-3.7854,-3.7854,-3.7848,-3.7783,-3.7764,-3.7816,-3.7816,-3.7815,-3.7815,-3.7815,-3.7735,-3.7719,-3.7767,-3.7787,-3.7825,-3.7856,-3.7864,-3.7903,-3.792,-3.7937,-3.7929,-3.7882,-3.7878,-3.7873,-3.7857,-3.793,-3.793,-3.793,-3.793,-3.777,-3.7771,-3.782,-3.7851,-3.7882,-3.7894,-3.7946,-3.7965,-3.7982,-3.7993,-3.7984,-3.7965,-3.796,-3.7959,-3.7952,-3.7937,-3.8029,-3.8029,-3.8029,-3.7815,-3.7818,-3.7861,-3.7879,-3.791,-3.7935,-3.7983,-3.8018,-3.8035,-3.8033,-3.8,-3.7996,-3.7966,-3.7956,-3.795,-3.7939,-3.7912,0,0]},{"header":{"parameterUnit":"m.s-1","parameterCategory":1,"la1":30.2992,"la2":30.254,"lo1":-89.0895,"lo2":-89.0443,"dy":0.0025,"dx":0.0025,"nx":19,"ny":19,"refTime":"2026-04-23T03:00:00:Z","depth":0,"parameterNumber":3,"parameterNumberName":"V-component_of_WINDS"},"data":[0,0,0,4.3675,4.3676,4.3679,4.3679,4.3711,4.3711,0,0,0,0,0,0,0,0,0,0,0,4.3689,4.369,4.3675,4.3676,4.3679,4.3679,4.371,4.3711,0,0,0,0,0,0,0,0,0,0,0,4.3689,4.369,4.369,4.3676,4.3679,4.3679,4.371,4.3698,0,0,0,0,0,0,0,0,0,0,4.369,4.3717,4.3689,4.369,4.3676,4.3679,4.3679,4.3697,4.3699,4.372,0,4.3742,0,4.3727,4.3715,4.3715,0,0,0,4.3665,4.3716,4.3703,4.3691,4.3676,4.368,4.3675,4.3698,4.37,4.3722,4.3742,4.3742,4.3727,4.3715,4.3715,4.387,4.3871,0,0,4.3664,4.3698,4.3702,4.3706,4.3706,4.3675,4.3675,4.3699,4.3722,4.3742,4.3742,4.3728,4.3716,4.3716,4.3869,4.3871,0,0,0,4.3671,4.3698,4.3684,4.3705,4.3704,4.3675,4.3675,4.3721,4.3714,4.3743,4.3728,4.3716,4.3717,4.3868,4.387,4.3963,0,0,0,4.3671,4.3702,4.3685,4.3706,4.3704,4.3712,4.3698,4.3712,4.3714,4.3728,4.3716,4.3717,4.3866,4.3869,4.3957,4.4001,0,0,0,4.3684,4.3703,4.3709,4.3707,4.371,4.3711,4.3705,4.3712,4.3706,4.3715,4.3717,4.3865,4.3868,4.3952,4.3993,4.4052,0,0,0,4.3708,4.3792,4.3711,4.3801,4.371,4.3769,4.3704,4.3746,4.3765,4.3716,4.3866,4.3869,4.3951,4.3988,4.4047,4.4107,4.4135,0,0,4.3833,4.3809,4.3859,4.3786,4.3867,4.3765,4.3861,4.3847,4.3817,4.3855,4.3858,4.3959,4.3992,4.4051,4.4283,4.4305,0,0,0,4.391,4.3946,4.3961,4.398,4.3971,4.3967,4.3935,4.393,4.396,4.3843,4.3995,4.4014,4.4047,4.4074,4.4093,4.412,4.3883,4.3883,4.3883,4.4136,4.4093,4.4173,4.4132,4.4152,4.4118,4.413,4.4117,4.4069,4.4106,4.4117,4.4262,4.4296,4.431,4.4338,4.4145,4.4146,4.4146,4.4146,4.4316,4.4361,4.4295,4.4348,4.4304,4.4348,4.432,4.4284,4.432,4.4251,4.4278,4.4205,4.4336,4.4358,4.4153,4.4152,4.4151,4.415,4.415,4.4459,4.4473,4.4465,4.4489,4.4513,4.4468,4.4505,4.4463,4.4424,4.4451,4.4457,4.4456,4.4449,4.4457,4.4457,4.4458,4.4458,4.4459,4.4459,4.461,4.4598,4.4635,4.4633,4.464,4.4644,4.4612,4.4618,4.4614,4.4581,4.458,4.4529,4.4357,4.4314,4.4467,4.4465,4.4464,4.4464,4.4463,4.4808,4.4757,4.4813,4.482,4.4815,4.4841,4.4787,4.4804,4.4803,4.4823,4.4766,4.4646,4.4617,4.4602,4.4566,4.4775,4.4775,4.4775,4.4775,4.4929,4.4911,4.4958,4.4973,4.4982,4.4939,4.5005,4.4982,4.4949,4.4946,4.491,4.486,4.4846,4.4826,4.4805,4.4771,4.5027,4.5028,4.5028,4.5048,4.5029,4.5093,4.5059,4.5052,4.5047,4.5108,4.5129,4.5081,4.5037,4.4943,4.4933,4.485,4.4826,4.478,4.4749,4.4685,0,0]}]]